SCP
0 0 0 0 0 0 0 0 0 0 0 0 0 0 0 0 0 0 0 -0 0 0 0 0 0 0 0 0 0 0 0 0 0 0 0 0 0 0
0 0 0 0 0 0 0 0 0 0 0 0 0 0 0 0 0 0 0 -0 0 0 0 0 -0 -0 -0 -0 0 0 0 0 0 0 0 0 0 0
0 0 0 0 0 0 0 0 0 0 0 0 0 0 0 0 0 0 0 0 0 0 0 -0 -0 -0 -0 0 0 0 0 0 0 0 0 0 0 0
0 0 0 0 0 0 0 0 0 0 0 0 0 0 0 0 0 0 0 0 0 0 0 0 -0 -0 0 0 0 0 0 0 0 0 0 0 0 0
0 0 0 0 0 0 0 0 0 0 0 0 0 0 0 0 0 0 0 0 0 0 0 0 0 0 0 0 0 0 0 0 0 0 0 0 0 0
0 0 0 0 0 0 0 0 0 0 0 0 0 0 -0 0 0 0 0 0 0 0 0 0 0 0 -0 0 0 0 0 0 0 0 0 0 0 0
0 0 0 0 0 0 0 0 0 0 0 0 0 0 0 0 0 0 0 0 0 0 0 0 0 0 0 0 0 0 0 0 0 0 0 0 0 0
0 0 0 0 0 0 0 0 0 0 0 0 0 0 0 0 0 0 0 0 0 0 0 -0 -0 0 0 0 0 0 0 0 0 0 0 0 0 0
0 0 0 0 0 0 0 0 0 0 0 0 0 0 0 0 0 0 0 0 0 0 -0 -0 -0 -0 0 0 0 0 0 0 0 0 0 0 0 0
0 0 0 0 0 0 0 0 0 0 0 0 0 0 0 0 0 0 0 0 -0 -0 -0 -0 -0 -0 0 0 0 0 0 0 0 0 0 0 0 0
0 0 0 0 0 0 0 0 0 0 0 0 0 0 0 0 0 0 0 -0 -0 -0 0 -0 -0 -0 0 -0 0 0 0 0 0 0 -0 0 0 0
0 0 0 0 0 0 0 0 0 0 0 0 0 0 0 0 0 0 0 -0 -0 -0 -0 -0 -0 -0 -0 0 0 0 0 -0 -0 -0 -0 -0 -0 -0
0 0 0 0 0 0 0 0 0 0 0 0 0 0 0 0 0 0 -0 -0 -0 0 0 -0 0 0 0 -0 -0 -0 0 -0 -0 -0 -0 -0 -0 -0
0 0 0 0 0 0 0 0 0 0 0 0 0 0 0 0 0 0 0 0 0 -0 -0 -0 0 -0 0 0 0 0 -0 -0 -0 -0 0 0 -0 -0
0 0 0 0 0 0 0 0 0 0 0 0 0 0 0 0 0 0 0 -0 0 -0 -0 -0 0 0 0 0 0 -0 -0 -0 0 0 0 -0 -0 0
0 0 0 0 0 0 0 0 0 0 0 0 0 0 0 0 0 0 0 0 0 0 0 -0 -0 -0 -0 -0 -0 -0 -0 0 0 0 -0 -0 -0 -0
0 0 0 0 0 0 0 0 0 0 0 0 -0 0 0 0 0 0 0 0 0 0 0 0 -0 -0 -0 -0 0 -0 -0 -0 -0 -0 -0 0 -0 0
0 0 0 0 0 0 0 0 0 0 0 0 0 0 0 0 0 0 0 0 0 0 0 0 0 0 0 0 0 0 0 0 0 0 0 0 0 0
0 0 0 0 0 0 0 0 0 0 0 0 0 0 0 0 0 0 0 0 0 0 0 0 0 0 0 0 0 0 0 0 0 0 0 0 0 0
0 0 0 0 0 0 0 0 0 0 0 0 0 0 0 0 0 0 0 0 0 0 0 0 0 0 0 0 0 0 0 0 0 0 0 0 0 0
0 0 0 0 0 0 0 0 0 0 0 0 0 0 0 0 0 0 0 0 0 0 0 0 0 0 0 0 0 0 0 0 0 0 0 0 0 -0
0 0 0 0 0 0 0 0 0 0 0 0 0 0 0 0 0 0 0 0 0 0 0 0 -0 0 0 0 0 0 0 0 0 0 0 -0 -0 0
0 -0 0 0 0 0 0 0 0 0 0 0 0 0 0 0 0 0 0 0 0 0 0 0 -0 0 -0 0 0 -0 -0 0 0 0 0 0 0 0
Wind_Speed_500mb
29 32 32 29 31 36 29 37 36 37 40 42 39 22 28 30 35 40 46 46 39 31 33 33 35 39 48 54 47 42 38 38 39 39 50 43 44 47
30 31 29 30 28 37 32 42 35 38 34 46 51 48 48 44 35 37 42 34 37 39 31 35 43 47 46 51 43 36 36 35 36 38 37 42 45 43
29 31 28 27 32 38 38 37 38 44 44 49 49 48 52 55 49 53 43 28 35 36 32 42 55 48 43 49 40 37 36 34 33 33 34 35 38 36
27 28 37 37 32 40 38 37 38 44 47 53 52 53 56 50 47 46 48 35 31 41 44 41 37 40 40 40 37 36 35 32 29 30 27 30 31 32
32 34 31 28 37 44 47 45 42 43 40 50 57 54 52 47 37 35 39 37 34 29 37 39 41 40 43 48 36 32 37 30 26 24 27 32 31 28
27 28 31 31 39 46 56 48 36 43 47 48 52 54 51 50 50 49 46 45 42 37 41 46 43 44 41 42 39 37 38 32 26 25 26 31 34 34
24 28 32 21 47 53 58 45 34 46 50 49 50 56 51 55 58 54 52 51 48 44 42 40 37 44 46 47 40 35 33 25 21 25 31 34 37 42
25 26 29 30 44 59 52 43 32 41 56 58 58 50 46 54 50 49 52 46 57 48 46 57 54 37 41 48 43 19 20 22 27 31 37 43 46 45
31 30 28 30 41 57 58 48 30 39 52 55 52 56 55 47 50 58 54 54 59 52 44 53 46 42 39 42 35 25 23 29 33 34 35 33 35 40
30 38 27 34 41 57 61 59 56 47 51 54 48 51 53 60 47 43 47 45 41 37 39 49 42 39 30 24 23 23 21 26 30 31 26 24 26 26
30 35 28 35 49 56 63 64 59 54 54 58 46 52 54 50 43 41 48 46 41 42 37 32 37 37 36 23 20 12 16 25 29 25 20 21 27 32
38 44 30 41 62 65 55 59 60 64 55 52 53 63 51 50 47 34 43 42 43 41 32 39 35 25 25 14 18 17 22 30 26 20 23 27 31 33
53 36 46 46 65 52 53 52 55 50 49 46 69 61 53 47 45 35 25 35 32 36 32 32 41 36 27 30 25 28 36 32 33 29 36 35 30 33
45 40 42 58 59 54 31 53 39 44 42 72 57 57 51 49 46 34 27 22 23 32 33 28 40 36 30 39 38 34 35 37 33 34 23 29 35 32
38 42 55 54 43 33 38 44 48 57 53 75 61 54 48 44 35 33 27 23 26 24 23 31 21 29 26 34 41 40 35 46 21 14 26 33 23 24
46 53 44 50 27 29 44 42 45 46 71 67 58 48 45 42 37 35 34 28 32 24 21 28 26 27 33 34 35 36 33 29 25 29 26 19 18 22
49 40 38 40 34 48 49 48 38 42 80 64 50 49 42 41 42 36 28 29 32 33 33 31 27 29 26 26 26 25 23 19 20 22 23 14 15 17
34 38 35 40 44 47 48 52 33 47 76 57 49 47 39 38 40 34 30 32 28 32 33 33 37 27 21 15 15 21 18 18 20 18 19 12 14 19
30 30 39 51 47 50 51 42 39 58 68 47 47 41 40 37 36 35 32 32 34 32 28 25 24 20 23 25 19 22 22 19 18 20 20 19 18 17
33 40 42 44 45 52 42 45 62 71 51 45 48 38 35 32 35 30 36 40 31 23 25 25 26 24 22 26 29 36 25 23 20 24 25 18 15 12
43 42 40 42 50 46 49 63 66 48 48 44 41 37 34 37 34 33 30 24 20 23 26 27 28 28 25 23 24 31 29 23 15 22 24 24 16 9
40 36 39 45 46 47 60 67 48 43 43 40 40 39 33 29 31 33 29 27 26 26 27 30 30 31 31 26 29 28 21 27 21 22 22 28 23 18
38 41 44 47 45 61 67 49 44 46 43 33 34 33 37 34 33 30 29 32 41 44 40 32 26 23 29 27 29 21 27 20 20 21 14 23 17 22
Wind_Direction_500mb
15 17 21 6 11 8 349 354 4 346 334 333 2 8 354 332 318 323 332 331 322 325 324 316 318 318 322 322 305 298 292 282 277 271 255 254 253 251
11 8 4 3 360 352 360 352 342 349 330 318 317 330 328 329 331 313 321 331 319 312 300 306 314 314 318 322 307 293 294 287 273 269 265 252 250 255
5 1 359 349 346 335 334 341 343 338 331 318 316 321 317 315 310 300 305 310 314 317 311 318 320 309 317 311 308 302 296 290 280 273 265 245 250 246
7 0 358 352 359 345 342 333 321 331 325 317 317 317 314 318 298 312 312 289 308 303 309 300 314 312 309 313 305 303 300 290 286 276 268 255 238 238
2 358 5 360 348 346 347 339 331 320 325 324 318 319 322 320 329 320 308 308 299 294 312 315 306 310 314 310 303 302 301 286 281 276 264 258 263 254
3 5 352 0 359 350 348 344 339 340 334 324 323 317 318 317 324 325 326 325 321 303 311 312 315 312 314 306 303 289 292 279 272 272 269 263 261 261
359 358 5 344 345 352 349 349 343 343 338 327 323 321 323 325 329 331 324 325 322 320 315 302 308 304 308 298 302 288 277 252 264 273 275 270 258 254
338 342 357 332 344 351 355 358 354 347 339 332 328 327 325 321 321 317 321 316 315 312 308 298 306 299 307 303 305 284 282 288 281 281 282 274 261 258
344 334 334 328 333 349 348 359 351 340 342 335 328 324 329 327 310 311 316 315 311 311 314 309 317 300 298 296 291 295 289 291 292 288 283 282 269 261
339 329 314 314 337 347 345 341 341 340 338 334 328 325 322 313 302 307 320 319 315 308 317 303 308 309 311 303 302 292 287 291 306 297 294 279 282 280
336 334 318 338 343 338 335 336 343 336 332 335 334 333 323 324 322 325 321 323 311 316 323 311 314 319 316 314 294 261 292 296 318 305 285 285 289 281
344 341 337 335 339 332 332 327 333 337 336 328 337 328 322 310 308 304 313 309 315 320 324 314 317 332 324 314 338 335 324 312 310 299 291 291 302 291
351 326 328 325 326 333 338 346 341 330 332 332 332 332 332 330 332 330 310 304 306 302 316 314 307 309 313 298 312 291 307 306 307 288 292 293 291 297
337 326 320 323 326 323 336 337 342 335 330 337 341 340 340 338 338 337 332 324 318 304 307 309 296 308 286 286 311 306 309 310 309 301 289 290 293 289
327 329 323 326 331 341 342 353 334 331 338 344 345 343 344 342 346 344 340 336 322 314 307 319 293 319 301 300 309 304 300 317 324 295 288 303 300 295
312 318 335 338 349 352 348 349 336 333 343 343 344 346 348 350 349 352 348 348 337 359 341 329 332 315 309 306 303 305 309 315 316 309 301 308 311 297
334 331 341 352 2 350 347 344 335 332 344 348 347 350 351 351 356 352 345 343 342 340 338 337 331 319 301 298 310 316 318 324 326 332 314 291 330 334
349 351 3 3 353 353 345 347 333 332 344 347 349 350 358 0 1 359 360 1 350 346 340 334 347 351 8 14 348 347 341 338 348 344 356 298 316 333
350 8 3 356 357 348 347 348 330 335 341 347 347 354 353 354 358 1 356 349 339 336 343 355 357 7 1 355 357 356 348 3 357 360 356 344 322 307
8 6 5 357 350 351 352 351 333 338 351 352 352 356 355 1 2 357 347 351 356 18 16 18 7 1 356 343 331 341 343 352 1 348 348 350 344 342
8 1 0 358 355 354 344 333 340 353 354 353 0 4 360 355 1 7 6 4 4 7 -0 353 343 343 339 348 338 343 355 341 8 358 2 5 357 324
8 4 360 357 354 341 334 342 357 1 2 6 7 7 12 12 4 358 360 9 5 10 5 356 355 342 343 1 2 344 346 345 345 338 350 5 9 2
10 3 357 358 343 336 342 356 1 1 6 16 12 11 10 9 6 4 354 346 337 337 348 325 6 14 7 357 354 351 360 2 9 335 14 10 12 13
Wind_Speed_850mb
29 32 32 29 31 36 29 37 36 37 40 42 39 22 28 30 35 40 46 46 39 31 33 33 35 39 48 54 47 42 38 38 39 39 50 43 44 47
30 31 29 30 28 37 32 42 35 38 34 46 51 48 48 44 35 37 42 34 37 39 31 35 43 47 46 51 43 36 36 35 36 38 37 42 45 43
29 31 28 27 32 38 38 37 38 44 44 49 49 48 52 55 49 53 43 28 35 36 32 42 55 48 43 49 40 37 36 34 33 33 34 35 38 36
27 28 37 37 32 40 38 37 38 44 47 53 52 53 56 50 47 46 48 35 31 41 44 41 37 40 40 40 37 36 35 32 29 30 27 30 31 32
32 34 31 28 37 44 47 45 42 43 40 50 57 54 52 47 37 35 39 37 34 29 37 39 41 40 43 48 36 32 37 30 26 24 27 32 31 28
27 28 31 31 39 46 56 48 36 43 47 48 52 54 51 50 50 49 46 45 42 37 41 46 43 44 41 42 39 37 38 32 26 25 26 31 34 34
24 28 32 21 47 53 58 45 34 46 50 49 50 56 51 55 58 54 52 51 48 44 42 40 37 44 46 47 40 35 33 25 21 25 31 34 37 42
25 26 29 30 44 59 52 43 32 41 56 58 58 50 46 54 50 49 52 46 57 48 46 57 54 37 41 48 43 19 20 22 27 31 37 43 46 45
31 30 28 30 41 57 58 48 30 39 52 55 52 56 55 47 50 58 54 54 59 52 44 53 46 42 39 42 35 25 23 29 33 34 35 33 35 40
30 38 27 34 41 57 61 59 56 47 51 54 48 51 53 60 47 43 47 45 41 37 39 49 42 39 30 24 23 23 21 26 30 31 26 24 26 26
30 35 28 35 49 56 63 64 59 54 54 58 46 52 54 50 43 41 48 46 41 42 37 32 37 37 36 23 20 12 16 25 29 25 20 21 27 32
38 44 30 41 62 65 55 59 60 64 55 52 53 63 51 50 47 34 43 42 43 41 32 39 35 25 25 14 18 17 22 30 26 20 23 27 31 33
53 36 46 46 65 52 53 52 55 50 49 46 69 61 53 47 45 35 25 35 32 36 32 32 41 36 27 30 25 28 36 32 33 29 36 35 30 33
45 40 42 58 59 54 31 53 39 44 42 72 57 57 51 49 46 34 27 22 23 32 33 28 40 36 30 39 38 34 35 37 33 34 23 29 35 32
38 42 55 54 43 33 38 44 48 57 53 75 61 54 48 44 35 33 27 23 26 24 23 31 21 29 26 34 41 40 35 46 21 14 26 33 23 24
46 53 44 50 27 29 44 42 45 46 71 67 58 48 45 42 37 35 34 28 32 24 21 28 26 27 33 34 35 36 33 29 25 29 26 19 18 22
49 40 38 40 34 48 49 48 38 42 80 64 50 49 42 41 42 36 28 29 32 33 33 31 27 29 26 26 26 25 23 19 20 22 23 14 15 17
34 38 35 40 44 47 48 52 33 47 76 57 49 47 39 38 40 34 30 32 28 32 33 33 37 27 21 15 15 21 18 18 20 18 19 12 14 19
30 30 39 51 47 50 51 42 39 58 68 47 47 41 40 37 36 35 32 32 34 32 28 25 24 20 23 25 19 22 22 19 18 20 20 19 18 17
33 40 42 44 45 52 42 45 62 71 51 45 48 38 35 32 35 30 36 40 31 23 25 25 26 24 22 26 29 36 25 23 20 24 25 18 15 12
43 42 40 42 50 46 49 63 66 48 48 44 41 37 34 37 34 33 30 24 20 23 26 27 28 28 25 23 24 31 29 23 15 22 24 24 16 9
40 36 39 45 46 47 60 67 48 43 43 40 40 39 33 29 31 33 29 27 26 26 27 30 30 31 31 26 29 28 21 27 21 22 22 28 23 18
38 41 44 47 45 61 67 49 44 46 43 33 34 33 37 34 33 30 29 32 41 44 40 32 26 23 29 27 29 21 27 20 20 21 14 23 17 22
Wind_Direction_850mb
15 17 21 6 11 8 349 354 4 346 334 333 2 8 354 332 318 323 332 331 322 325 324 316 318 318 322 322 305 298 292 282 277 271 255 254 253 251
11 8 4 3 360 352 360 352 342 349 330 318 317 330 328 329 331 313 321 331 319 312 300 306 314 314 318 322 307 293 294 287 273 269 265 252 250 255
5 1 359 349 346 335 334 341 343 338 331 318 316 321 317 315 310 300 305 310 314 317 311 318 320 309 317 311 308 302 296 290 280 273 265 245 250 246
7 0 358 352 359 345 342 333 321 331 325 317 317 317 314 318 298 312 312 289 308 303 309 300 314 312 309 313 305 303 300 290 286 276 268 255 238 238
2 358 5 360 348 346 347 339 331 320 325 324 318 319 322 320 329 320 308 308 299 294 312 315 306 310 314 310 303 302 301 286 281 276 264 258 263 254
3 5 352 0 359 350 348 344 339 340 334 324 323 317 318 317 324 325 326 325 321 303 311 312 315 312 314 306 303 289 292 279 272 272 269 263 261 261
359 358 5 344 345 352 349 349 343 343 338 327 323 321 323 325 329 331 324 325 322 320 315 302 308 304 308 298 302 288 277 252 264 273 275 270 258 254
338 342 357 332 344 351 355 358 354 347 339 332 328 327 325 321 321 317 321 316 315 312 308 298 306 299 307 303 305 284 282 288 281 281 282 274 261 258
344 334 334 328 333 349 348 359 351 340 342 335 328 324 329 327 310 311 316 315 311 311 314 309 317 300 298 296 291 295 289 291 292 288 283 282 269 261
339 329 314 314 337 347 345 341 341 340 338 334 328 325 322 313 302 307 320 319 315 308 317 303 308 309 311 303 302 292 287 291 306 297 294 279 282 280
336 334 318 338 343 338 335 336 343 336 332 335 334 333 323 324 322 325 321 323 311 316 323 311 314 319 316 314 294 261 292 296 318 305 285 285 289 281
344 341 337 335 339 332 332 327 333 337 336 328 337 328 322 310 308 304 313 309 315 320 324 314 317 332 324 314 338 335 324 312 310 299 291 291 302 291
351 326 328 325 326 333 338 346 341 330 332 332 332 332 332 330 332 330 310 304 306 302 316 314 307 309 313 298 312 291 307 306 307 288 292 293 291 297
337 326 320 323 326 323 336 337 342 335 330 337 341 340 340 338 338 337 332 324 318 304 307 309 296 308 286 286 311 306 309 310 309 301 289 290 293 289
327 329 323 326 331 341 342 353 334 331 338 344 345 343 344 342 346 344 340 336 322 314 307 319 293 319 301 300 309 304 300 317 324 295 288 303 300 295
312 318 335 338 349 352 348 349 336 333 343 343 344 346 348 350 349 352 348 348 337 359 341 329 332 315 309 306 303 305 309 315 316 309 301 308 311 297
334 331 341 352 2 350 347 344 335 332 344 348 347 350 351 351 356 352 345 343 342 340 338 337 331 319 301 298 310 316 318 324 326 332 314 291 330 334
349 351 3 3 353 353 345 347 333 332 344 347 349 350 358 0 1 359 360 1 350 346 340 334 347 351 8 14 348 347 341 338 348 344 356 298 316 333
350 8 3 356 357 348 347 348 330 335 341 347 347 354 353 354 358 1 356 349 339 336 343 355 357 7 1 355 357 356 348 3 357 360 356 344 322 307
8 6 5 357 350 351 352 351 333 338 351 352 352 356 355 1 2 357 347 351 356 18 16 18 7 1 356 343 331 341 343 352 1 348 348 350 344 342
8 1 0 358 355 354 344 333 340 353 354 353 0 4 360 355 1 7 6 4 4 7 -0 353 343 343 339 348 338 343 355 341 8 358 2 5 357 324
8 4 360 357 354 341 334 342 357 1 2 6 7 7 12 12 4 358 360 9 5 10 5 356 355 342 343 1 2 344 346 345 345 338 350 5 9 2
10 3 357 358 343 336 342 356 1 1 6 16 12 11 10 9 6 4 354 346 337 337 348 325 6 14 7 357 354 351 360 2 9 335 14 10 12 13